Location: LDNL
(36.4545°S, 141.6685°E)
Time: 01:40:24
(UTC+11:00)

Vanguard 1 - Visible Passes

Search period start: 03 December 2023 00:00
Search period end: 13 December 2023 00:00
Orbit: 651 x 3828 km, 34.3° (Epoch: 01 December)

Date Brightness Start Highest point End Pass type
(mag) Time Alt. Az. Time Alt. Az. Time Alt. Az.
04 Dec 12.9 04:30:51 10° N 04:35:23 13° NNE 04:39:06 10° NE visible
05 Dec 12.6 04:48:30 10° NNW 04:56:12 19° NNE 05:01:40 10° ENE visible
06 Dec 12.2 05:07:28 10° NNW 05:16:56 26° NNE 05:23:06 10° ENE visible
07 Dec 13.2 03:12:51 12° NNE 03:15:08 13° NNE 03:19:29 10° NE visible
07 Dec 11.9 05:27:06 10° NW 05:37:40 33° NNE 05:44:04 10° E visible
08 Dec 12.9 03:31:55 16° N 03:36:02 19° NNE 03:42:44 10° ENE visible
09 Dec 12.6 03:50:55 19° N 03:56:52 25° NNE 04:04:30 10° ENE visible
10 Dec 13.4 01:57:13 11° NE 01:57:13 11° NE 01:58:10 10° NE visible
10 Dec 12.3 04:09:51 20° NNW 04:17:40 33° NNE 04:25:40 10° E visible
11 Dec 13.2 02:16:05 17° NE 02:16:05 17° NE 02:22:57 10° ENE visible
11 Dec 12.0 04:28:42 19° NNW 04:38:26 41° NNE 04:46:31 10° E visible
12 Dec 12.9 02:34:52 24° NNE 02:36:05 24° NNE 02:45:17 10° ENE visible
12 Dec 11.7 04:47:29 16° NW 04:59:08 50° NNE 05:07:10 10° E visible
